N2PUI Weather Reports


time (UTC)temp
F
wind
direction
speed
knots
gust
knots
rain 1hr
in
rain 24hr
in
rain mn
in
humidity
%
barometer
mb
20260508013335 42 34 2.6 2.6 0.00 0.02 0.02 65 1010.8
20260508012832 43 28 2.6 2.6 0.00 0.02 0.02 64 1010.9
20260508012329 43 32 2.6 2.6 0.00 0.02 0.02 63 1010.8
20260508011827 43 20 3.5 4.3 0.00 0.02 0.02 64 1011.0
20260508011324 43 45 1.7 1.7 0.00 0.02 0.02 64 1010.8
20260508010821 43 81 1.7 1.7 0.00 0.02 0.02 64 1010.8
20260508010319 43 23 2.6 2.6 0.00 0.02 0.02 65 1010.9
20260508005816 44 94 1.7 1.7 0.00 0.02 0.02 63 1010.9
20260508005312 45 74 0.9 1.7 0.00 0.02 0.02 60 1010.5
20260508004808 46 107 0.9 1.7 0.00 0.02 0.02 60 1010.8
20260508004259 46 38 2.6 2.6 0.00 0.02 0.02 62 1010.6
20260508003755 47 234 0.0 0.9 0.00 0.02 0.02 58 1010.6
20260508003254 48 8 2.6 2.6 0.00 0.02 0.02 57 1010.4
20260508002749 48 66 1.7 1.7 0.00 0.02 0.02 57 1010.6
20260508002247 48 353 2.6 2.6 0.00 0.02 0.02 56 1010.2
20260508001743 48 286 1.7 1.7 0.00 0.02 0.02 56 1010.3
20260508001238 49 96 0.9 1.7 0.00 0.02 0.02 55 1010.3
20260508000735 49 23 1.7 1.7 0.00 0.02 0.02 57 1010.3
20260508000234 49 163 0.0 0.9 0.00 0.02 0.02 57 1010.2
20260507235728 50 124 0.9 0.9 0.00 0.02 0.02 56 1010.0
20260507235226 50 285 4.3 5.2 0.00 0.02 0.02 52 1009.8
20260507234723 50 254 1.7 1.7 0.00 0.02 0.02 53 1010.2
20260507234219 51 239 0.9 0.9 0.00 0.02 0.02 52 1010.0
20260507233716 51 185 0.0 0.0 0.00 0.02 0.02 54 1009.8
20260507233214 51 194 0.9 0.9 0.00 0.02 0.02 51 1009.7
20260507232710 51 298 2.6 2.6 0.00 0.02 0.02 50 1010.1
20260507232208 51 298 2.6 2.6 0.00 0.02 0.02 51 1010.0
20260507231704 52 328 1.7 1.7 0.00 0.02 0.02 50 1010.0
20260507231201 52 290 2.6 4.3 0.00 0.02 0.02 49 1009.8
20260507230658 52 165 0.9 0.9 0.00 0.02 0.02 49 1009.7
20260507230155 52 329 2.6 2.6 0.00 0.02 0.02 50 1009.8
20260507225655 52 268 1.7 2.6 0.00 0.02 0.02 49 1009.8
20260507225152 53 209 0.9 1.7 0.00 0.02 0.02 49 1009.8
20260507224647 54 254 0.9 1.7 0.00 0.02 0.02 49 1009.8
20260507224144 52 345 0.9 1.7 0.00 0.02 0.02 51 1009.8
20260507223640 51 285 0.9 1.7 0.00 0.02 0.02 51 1009.7
20260507223137 51 237 1.7 1.7 0.00 0.02 0.02 49 1009.8
20260507222634 52 330 2.6 4.3 0.00 0.02 0.02 50 1009.6
20260507222130 52 217 0.9 1.7 0.00 0.02 0.02 50 1009.7
20260507221627 52 269 2.6 2.6 0.00 0.02 0.02 48 1010.0
20260507221123 53 147 0.0 0.9 0.00 0.02 0.02 49 1009.8
20260507220620 53 281 5.2 6.1 0.00 0.02 0.02 47 1009.7
20260507220118 52 130 1.7 1.7 0.00 0.02 0.02 50 1009.8
20260507215614 52 0 7.0 9.6 0.00 0.02 0.02 49 1009.8
20260507215112 52 319 2.6 4.3 0.00 0.02 0.02 49 1010.1
20260507214609 52 194 1.7 2.6 0.00 0.02 0.02 48 1010.2
20260507214105 52 290 1.7 2.6 0.00 0.02 0.02 49 1010.1
20260507213601 53 301 2.6 4.3 0.00 0.02 0.02 49 1010.0
20260507213059 54 202 0.9 0.9 0.00 0.02 0.02 48 1010.2
20260507212554 54 300 2.6 2.6 0.00 0.02 0.02 50 1010.1
20260507212051 55 303 4.3 6.1 0.00 0.02 0.02 47 1010.1
20260507211548 54 339 3.5 4.3 0.00 0.02 0.02 48 1010.1
20260507211044 54 332 7.0 7.8 0.00 0.02 0.02 49 1010.3
20260507210542 54 323 6.1 8.7 0.00 0.02 0.02 49 1010.3
20260507210038 56 220 1.7 1.7 0.00 0.02 0.02 47 1010.1
20260507205535 55 253 5.2 6.1 0.00 0.02 0.02 47 1009.8
20260507205031 55 237 5.2 7.0 0.00 0.02 0.02 47 1009.8
20260507204527 55 305 4.3 5.2 0.00 0.02 0.02 49 1009.7
20260507204025 54 237 2.6 2.6 0.00 0.02 0.02 50 1010.3
20260507203523 54 52 3.5 5.2 0.00 0.02 0.02 51 1010.1
20260507203020 53 332 3.5 4.3 0.00 0.02 0.02 52 1010.0
20260507202516 53 299 3.5 5.2 0.00 0.02 0.02 49 1010.0
20260507202012 54 269 5.2 7.8 0.00 0.02 0.02 48 1010.2
20260507201508 55 291 7.0 7.8 0.00 0.02 0.02 46 1010.1
20260507201004 55 289 4.3 6.1 0.00 0.02 0.02 47 1010.3
20260507200500 53 237 3.5 4.3 0.00 0.02 0.02 49 1010.0
20260507195955 53 271 3.5 5.2 0.00 0.02 0.02 49 1010.2
20260507195454 54 280 7.8 9.6 0.00 0.02 0.02 46 1010.3
20260507194951 55 352 6.1 7.8 0.00 0.02 0.02 47 1010.0
20260507194447 55 304 6.1 7.0 0.00 0.02 0.02 49 1010.2
20260507193943 56 273 2.6 5.2 0.00 0.02 0.02 46 1010.3
20260507193440 54 265 3.5 5.2 0.00 0.02 0.02 47 1010.3
20260507192937 56 185 0.9 0.9 0.00 0.02 0.02 48 1010.4
20260507192433 55 9 2.6 2.6 0.00 0.02 0.02 52 1010.6
20260507191930 53 93 1.7 2.6 0.00 0.02 0.02 53 1010.7
20260507191426 52 46 1.7 4.3 0.00 0.02 0.02 52 1010.7
20260507190923 52 304 7.8 9.6 0.00 0.02 0.02 50 1010.7
20260507190421 53 258 5.2 6.1 0.00 0.02 0.02 49 1010.5
20260507185920 53 1 2.6 4.3 0.00 0.02 0.02 50 1010.6
20260507185417 52 197 4.3 5.2 0.00 0.02 0.02 49 1010.7
20260507184913 52 307 2.6 4.3 0.00 0.02 0.02 51 1010.9
20260507184411 53 240 3.5 4.3 0.00 0.02 0.02 51 1010.8
20260507183908 53 170 1.7 1.7 0.00 0.02 0.02 50 1010.7
20260507183405 54 290 3.5 4.3 0.00 0.02 0.02 49 1010.7
20260507182903 53 275 2.6 2.6 0.00 0.02 0.02 49 1011.0
20260507182358 53 243 2.6 4.3 0.00 0.02 0.02 48 1011.2
20260507181855 53 303 8.7 11.3 0.00 0.02 0.02 48 1011.0
20260507181350 53 307 4.3 6.1 0.00 0.02 0.02 48 1011.0
20260507180848 53 292 5.2 6.1 0.00 0.02 0.02 48 1010.8
20260507180344 54 295 4.3 6.1 0.00 0.02 0.02 48 1011.0
20260507175840 52 201 0.9 1.7 0.00 0.02 0.02 49 1011.2
20260507175337 53 318 2.6 6.1 0.00 0.02 0.02 49 1011.4
20260507174835 53 13 2.6 4.3 0.00 0.02 0.02 49 1011.1
20260507174332 53 314 2.6 2.6 0.00 0.02 0.02 50 1011.3
20260507173829 53 345 7.0 9.6 0.00 0.02 0.02 48 1011.1
20260507173326 53 120 1.7 2.6 0.00 0.02 0.02 50 1011.2
20260507172822 53 221 1.7 1.7 0.00 0.02 0.02 48 1011.2
20260507172319 54 291 4.3 6.1 0.00 0.02 0.02 47 1011.2
20260507171815 54 201 0.9 0.9 0.00 0.02 0.02 48 1011.2
20260507171312 54 237 2.6 5.2 0.00 0.02 0.02 47 1011.2
20260507170809 54 261 2.6 4.3 0.00 0.02 0.02 48 1011.3
20260507170306 55 296 5.2 7.8 0.00 0.02 0.02 46 1011.4
20260507165801 53 208 4.3 6.1 0.00 0.02 0.02 51 1011.6
20260507165258 52 258 7.8 9.6 0.00 0.02 0.02 50 1011.4
20260507164754 52 302 4.3 6.1 0.00 0.02 0.02 49 1011.6
20260507164251 53 316 7.0 11.3 0.00 0.02 0.02 49 1011.4
20260507163748 53 226 5.2 7.0 0.00 0.02 0.02 49 1011.4
20260507163246 52 268 4.3 6.1 0.00 0.02 0.02 49 1011.8
20260507162742 52 247 6.1 6.1 0.00 0.02 0.02 49 1011.7
20260507162238 52 286 6.1 7.8 0.00 0.02 0.02 48 1011.9
20260507161735 52 262 3.5 4.3 0.00 0.02 0.02 48 1011.7
20260507161231 53 253 0.9 1.7 0.00 0.02 0.02 50 1011.8
20260507160727 53 282 4.3 5.2 0.00 0.02 0.02 49 1012.0
20260507160224 53 123 0.9 0.9 0.00 0.02 0.02 50 1011.9
20260507155720 54 294 7.0 7.8 0.00 0.02 0.02 48 1012.0
20260507155216 52 219 3.5 5.2 0.00 0.02 0.02 51 1012.0
20260507154713 51 219 2.6 2.6 0.00 0.02 0.02 53 1012.3
20260507154211 51 281 4.3 5.2 0.00 0.02 0.02 51 1012.1
20260507153707 52 22 2.6 4.3 0.00 0.02 0.02 50 1012.0
20260507153203 52 66 2.6 2.6 0.00 0.02 0.02 53 1012.2
20260507152700 51 113 0.9 0.9 0.00 0.02 0.02 52 1012.2
20260507152156 50 24 3.5 4.3 0.00 0.02 0.02 52 1012.3
20260507151652 52 328 6.1 7.8 0.00 0.02 0.02 49 1012.2
20260507151149 52 164 0.0 0.0 0.00 0.02 0.02 50 1012.5
20260507150646 51 6 2.6 2.6 0.00 0.02 0.02 50 1012.3
20260507150143 50 78 3.5 4.3 0.00 0.02 0.02 51 1012.5
20260507145638 53 99 1.7 1.7 0.00 0.02 0.02 52 1012.4
20260507145136 53 234 2.6 2.6 0.00 0.02 0.02 47 1012.8
20260507144632 52 266 4.3 5.2 0.00 0.02 0.02 49 1012.7
20260507144130 51 151 1.7 1.7 0.00 0.02 0.02 50 1012.8
20260507143626 51 194 0.9 0.9 0.00 0.02 0.02 48 1012.8
20260507143124 51 232 1.7 2.6 0.00 0.02 0.02 49 1012.8
20260507142619 51 279 3.5 7.0 0.00 0.02 0.02 50 1012.8
20260507142116 50 60 1.7 1.7 0.00 0.02 0.02 50 1012.7
20260507141612 50 179 0.9 0.9 0.00 0.02 0.02 52 1012.8
20260507141109 50 301 1.7 4.3 0.00 0.02 0.02 55 1012.6
20260507140606 50 222 2.6 2.6 0.00 0.02 0.02 56 1012.7
20260507140103 49 180 1.7 2.6 0.00 0.02 0.02 58 1012.8
20260507135600 49 343 2.6 4.3 0.00 0.02 0.02 57 1013.0
20260507135058 48 229 1.7 2.6 0.00 0.02 0.02 62 1012.9
20260507134554 48 335 2.6 4.3 0.00 0.02 0.02 63 1013.1
20260507134050 48 162 0.9 0.9 0.00 0.02 0.02 63 1013.1
20260507133546 48 157 0.9 0.9 0.00 0.02 0.02 64 1013.0
20260507133044 46 118 0.9 1.7 0.00 0.02 0.02 67 1013.1
20260507132540 46 204 0.0 0.9 0.00 0.02 0.02 69 1013.0
20260507132036 46 303 3.5 4.3 0.00 0.02 0.02 68 1013.1
20260507131534 46 205 2.6 2.6 0.00 0.02 0.02 70 1012.9
20260507131031 45 108 1.7 1.7 0.00 0.02 0.02 69 1013.0
20260507130528 45 143 0.9 0.9 0.00 0.02 0.02 70 1013.3
20260507130026 45 338 2.6 4.3 0.00 0.02 0.02 70 1013.5
20260507125524 44 94 0.9 1.7 0.00 0.02 0.02 71 1013.1
20260507125021 44 39 2.6 2.6 0.00 0.02 0.02 72 1013.1
20260507124517 44 344 1.7 2.6 0.00 0.02 0.02 73 1013.5
20260507124016 44 324 3.5 4.3 0.00 0.02 0.02 75 1013.0
20260507123513 43 170 0.0 0.0 0.00 0.02 0.02 77 1013.3
20260507123010 43 43 0.9 1.7 0.00 0.02 0.02 78 1013.5
20260507122504 42 122 0.9 0.9 0.00 0.02 0.02 81 1013.4
20260507122001 42 276 2.6 2.6 0.00 0.02 0.02 83 1013.1
20260507121456 42 206 0.9 1.7 0.00 0.02 0.02 85 1013.4
20260507120948 41 199 0.9 1.7 0.00 0.02 0.02 86 1013.6
20260507120444 40 299 1.7 1.7 0.00 0.02 0.02 87 1013.1
20260507115941 40 289 1.7 1.7 0.00 0.02 0.02 89 1013.0
20260507115436 40 195 0.9 1.7 0.00 0.02 0.02 90 1012.9
20260507114932 40 279 1.7 1.7 0.00 0.02 0.02 90 1013.1
20260507114429 40 173 0.9 0.9 0.00 0.02 0.02 91 1012.9
20260507113927 40 168 0.0 0.9 0.00 0.02 0.02 91 1013.1
20260507113423 39 168 0.9 0.9 0.00 0.02 0.02 91 1013.0
20260507112921 39 184 0.9 0.9 0.00 0.02 0.02 91 1012.9
20260507112418 39 163 0.0 0.0 0.00 0.02 0.02 91 1013.3
20260507111915 39 175 0.9 0.9 0.00 0.02 0.02 91 1013.1
20260507111413 39 148 0.0 0.0 0.00 0.02 0.02 92 1013.0
20260507110909 37 141 0.0 0.0 0.00 0.02 0.02 92 1012.6
20260507110405 37 139 0.0 0.0 0.00 0.02 0.02 92 1012.7
20260507105901 36 126 0.9 0.9 0.00 0.02 0.02 92 1012.9
20260507105358 36 125 0.9 0.9 0.00 0.02 0.02 91 1012.9
20260507104855 35 147 0.0 0.9 0.00 0.02 0.02 91 1012.7
20260507104352 35 117 0.9 0.9 0.00 0.02 0.02 91 1012.9
20260507103848 34 128 0.9 0.9 0.00 0.02 0.02 91 1012.8
20260507103344 34 133 0.0 0.0 0.00 0.02 0.02 91 1012.9
20260507102841 34 148 0.0 0.0 0.00 0.02 0.02 91 1012.9
20260507102337 34 147 0.0 0.0 0.00 0.02 0.02 91 1012.6
20260507101833 34 139 0.9 0.9 0.00 0.02 0.02 91 1012.5
20260507101328 35 149 0.0 0.0 0.00 0.02 0.02 90 1012.7
20260507100826 35 162 0.0 0.0 0.00 0.02 0.02 90 1012.7
20260507100324 35 103 1.7 1.7 0.00 0.02 0.02 90 1012.3
20260507095821 35 128 0.9 0.9 0.00 0.02 0.02 90 1012.5
20260507095317 35 117 0.9 0.9 0.00 0.02 0.02 90 1012.4
20260507094815 35 151 0.0 0.0 0.00 0.02 0.02 90 1012.4
20260507094311 36 126 0.9 0.9 0.00 0.02 0.02 90 1012.6
20260507093808 35 91 1.7 2.6 0.00 0.02 0.02 89 1012.5
20260507093307 36 112 0.9 0.9 0.00 0.02 0.02 89 1012.8
20260507092804 36 86 1.7 1.7 0.00 0.02 0.02 89 1012.7
20260507092300 36 128 0.9 0.9 0.00 0.02 0.02 89 1012.5
20260507091757 36 126 0.9 0.9 0.00 0.02 0.02 88 1012.7
20260507091253 37 80 0.9 1.7 0.00 0.02 0.02 88 1012.7
20260507090748 37 111 1.7 1.7 0.00 0.02 0.02 88 1012.6
20260507090245 37 133 0.9 0.9 0.00 0.02 0.02 87 1012.7
20260507085742 37 101 1.7 1.7 0.00 0.02 0.02 87 1012.6
20260507085239 38 138 0.0 0.9 0.00 0.02 0.02 87 1012.5
20260507084736 38 114 0.9 0.9 0.00 0.02 0.02 87 1012.6
20260507084232 38 94 1.7 1.7 0.00 0.02 0.02 87 1012.6
20260507083730 38 52 2.6 2.6 0.00 0.02 0.02 87 1012.8
20260507083226 39 49 2.6 4.3 0.00 0.02 0.02 86 1012.5
20260507082722 39 49 2.6 2.6 0.00 0.02 0.02 86 1012.4
20260507082218 40 118 0.9 1.7 0.00 0.02 0.02 86 1012.7
20260507081715 40 123 0.9 0.9 0.00 0.02 0.02 86 1012.6
20260507081211 40 140 0.9 0.9 0.00 0.02 0.02 86 1012.5
20260507080708 40 135 0.9 0.9 0.00 0.02 0.02 85 1012.4
20260507080204 41 167 0.0 0.0 0.00 0.02 0.02 85 1012.5
20260507075700 41 138 0.9 0.9 0.00 0.02 0.02 85 1012.6
20260507075156 41 137 0.9 0.9 0.00 0.02 0.02 84 1012.5
20260507074653 41 128 1.7 1.7 0.00 0.02 0.02 84 1012.4
20260507074151 41 259 1.7 1.7 0.00 0.02 0.02 85 1012.6
20260507073647 41 334 2.6 2.6 0.00 0.02 0.02 84 1012.6
20260507073143 41 173 0.9 0.9 0.00 0.02 0.02 85 1012.4
20260507072642 41 173 0.9 0.9 0.00 0.02 0.02 85 1012.2
20260507072138 41 152 0.0 0.9 0.00 0.02 0.02 84 1012.4
20260507071636 41 1 0.0 1.7 0.00 0.02 0.02 85 1012.6
20260507071132 41 0 1.7 1.7 0.00 0.02 0.02 85 1012.3
20260507070629 41 36 0.9 1.7 0.00 0.02 0.02 85 1012.3
20260507070126 41 174 0.0 0.9 0.00 0.02 0.02 85 1012.2
20260507065622 41 215 0.9 0.9 0.00 0.02 0.02 86 1012.3
20260507065120 41 206 0.9 0.9 0.00 0.02 0.02 86 1012.6
20260507064617 41 290 1.7 1.7 0.00 0.02 0.02 87 1012.6
20260507064116 41 193 1.7 2.6 0.00 0.02 0.02 88 1012.3
20260507063613 41 331 4.3 6.1 0.00 0.02 0.02 88 1012.3
20260507063110 41 215 1.7 1.7 0.00 0.02 0.02 89 1012.2
20260507062606 41 107 1.7 1.7 0.00 0.02 0.02 90 1012.3
20260507062104 41 311 4.3 6.1 0.00 0.02 0.02 92 1012.2
20260507061602 42 305 1.7 5.2 0.00 0.02 0.02 93 1011.9
20260507061100 42 323 3.5 4.3 0.00 0.02 0.02 93 1012.0
20260507060557 42 342 3.5 5.2 0.00 0.02 0.02 94 1012.1
20260507060054 43 280 2.6 4.3 0.00 0.02 0.02 94 1012.1
20260507055548 43 208 3.5 4.3 0.00 0.02 0.02 94 1012.0
20260507055045 43 272 2.6 2.6 0.00 0.02 0.02 95 1011.7
20260507054541 44 288 1.7 1.7 0.00 0.02 0.02 95 1011.5
20260507054038 44 335 2.6 2.6 0.00 0.02 0.02 95 1011.8
20260507053536 44 310 2.6 2.6 0.00 0.02 0.02 95 1012.1
20260507053035 44 216 0.9 1.7 0.00 0.02 0.02 95 1012.0
20260507052532 44 175 0.9 0.9 0.00 0.02 0.02 95 1012.1
20260507052029 44 185 0.9 0.9 0.00 0.02 0.02 95 1012.1
20260507051527 44 182 0.9 0.9 0.00 0.02 0.02 94 1012.0
20260507051023 44 176 0.0 0.0 0.00 0.02 0.02 94 1012.1
20260507050519 44 205 0.9 0.9 0.00 0.02 0.02 94 1012.1
20260507050016 44 169 0.0 0.0 0.00 0.02 0.02 94 1012.1
20260507045513 44 172 0.0 0.0 0.00 0.02 0.02 94 1012.1
20260507045010 44 178 0.0 0.0 0.00 0.02 0.02 94 1012.0
20260507044507 44 186 0.0 0.9 0.07 0.02 0.02 94 1012.2
20260507044003 44 168 0.0 0.0 0.07 0.02 0.02 94 1012.1
20260507043459 44 185 0.9 0.9 0.00 0.01 0.01 94 1012.3
20260507042956 44 152 0.0 0.0 0.05 0.01 0.01 94 1012.1
20260507042453 44 151 0.0 0.0 0.05 0.01 0.01 94 1011.8
20260507041948 44 146 0.0 0.9 0.00 0.00 0.00 94 1012.0
20260507041445 44 147 0.0 0.0 0.00 0.00 0.00 94 1011.8
20260507040942 44 147 0.0 0.0 0.00 0.00 0.00 94 1011.9
20260507040438 44 136 0.9 0.9 0.00 0.00 0.00 94 1011.6
20260507035934 44 159 0.0 0.0 0.07 0.45 0.45 94 1011.5
20260507035431 44 159 0.0 0.0 0.07 0.45 0.45 94 1011.5
20260507034928 44 159 0.0 0.0 0.00 0.44 0.44 94 1011.5
20260507034425 44 148 0.0 0.0 0.00 0.44 0.44 94 1011.2
20260507033923 44 141 0.9 0.9 0.00 0.44 0.44 94 1011.4
20260507033420 44 153 0.0 0.0 0.00 0.44 0.44 94 1011.6
20260507032917 44 154 0.0 0.9 0.00 0.44 0.44 93 1011.7
20260507032414 44 134 0.9 0.9 0.00 0.44 0.44 93 1011.7
20260507031910 44 137 0.9 0.9 0.00 0.44 0.44 93 1011.5
20260507031407 44 146 0.0 0.9 0.00 0.44 0.44 93 1011.9
20260507030903 44 130 0.9 1.7 0.00 0.44 0.44 93 1011.8
20260507030401 44 148 0.0 0.0 0.00 0.44 0.44 93 1011.9
20260507025857 44 151 0.0 0.0 0.00 0.44 0.44 93 1012.0
20260507025355 44 149 0.0 0.0 0.00 0.44 0.44 93 1011.8
20260507024853 44 139 0.9 0.9 0.00 0.44 0.44 93 1011.8
20260507024350 44 157 0.0 0.0 0.00 0.44 0.44 93 1012.0
20260507023845 44 154 0.0 0.0 0.00 0.44 0.44 93 1011.9
20260507023342 44 138 0.9 0.9 0.00 0.44 0.44 93 1011.8
20260507022840 43 142 0.0 0.0 0.00 0.44 0.44 93 1012.0
20260507022336 44 162 0.0 0.0 0.00 0.44 0.44 93 1011.9
20260507021832 44 137 0.0 0.0 0.00 0.44 0.44 93 1011.8
20260507021328 44 172 0.0 0.0 0.00 0.44 0.44 92 1012.2
20260507020826 44 173 0.0 0.0 0.00 0.44 0.44 92 1012.2
20260507020322 44 173 0.0 0.0 0.00 0.44 0.44 92 1012.0
20260507015819 44 172 0.0 0.0 0.00 0.44 0.44 92 1012.1
20260507015317 44 173 0.0 0.0 0.00 0.44 0.44 92 1012.3
20260507014814 44 173 0.0 0.0 0.00 0.44 0.44 92 1012.4
20260507014310 44 172 0.0 0.0 0.00 0.44 0.44 92 1012.1
20260507013807 44 151 0.0 0.0 0.00 0.44 0.44 92 1011.8